STARLINK-1641, 46174

Orbit data source: Space-Track

STARLINK-1641, 46174 is a payload satellite owned by SpaceX/Seattle (US) in LEO that was launched on Tue, 18 Aug 2020 UTC via an FALCON 9 launch vehicle from the Air Force Eastern Test Range (AFETR). Payload-class satellites include a variety of spacecraft equipped with specific instruments for various scientific and technological missions. These include communications satellites like Starlink; space stations such as the ISS; scientific satellites like the Hubble; Earth observation satellites from companies like Planet Labs, Umbra, and HawkEye 360; GPS; miniature CubeSats for education and research; and military/defense satellites.

Loading next visibility...
Identifier
46174, 2020-057BK
Orbit
LEO
Country
Flag of USUS
Related business
Manufacturer
SpaceX/Seattle
Mission
Partially operational Commercial Communications
Bus & Motor
STARLINK, Unknown motor
Mass
260 kg wet, ~248 kg dry
Launch date (UTC)
2020-08-18 (6 years ago)
Launch vehicle
FALCON 9
Launch site
Air Force Eastern Test Range (AFETR)
Object type
Payload
Rocket body
Debris
Shape & HBR
Box + 1 Pan, 10.1 m
Radar Cross Section
13.562 m², Large (>1 m²)

Expand to show TLE details & history
Last TLE update: 19 hours ago

TLE from 19 hours ago
0 STARLINK-1641
1 46174U 20057BK  26065.36353053  .00040867  00000-0  71849-3 0  9990
2 46174  53.0498 300.9495 0000606 124.5299 235.5767 15.50107221305992
Epoch: 2026-03-06T08:43Z
TLE epoch observation values (Epoch: 2026-03-06T08:43:29.037Z)
Latitude
0.00002°
Longitude
5.97793°
Altitude
417.541 km
Speed
7.662 km/s
True Right ascension
20h 03m 47s
True Declination
0° 00' 00"
Sunlit
Object was in daylight at epoch
Visualization orbit readout
Latitude
Unknown
Longitude
Unknown
Altitude
Unknown
Speed
Unknown
Apparent Right ascension
Unknown
Apparent Declination
Unknown
Sunlit
N/A
Visualization observer readout
Local Sidereal Time
07:21:07
Azimuth
Unknown
Elevation
Unknown
Doppler factor
Unknown
Orbital elements
Apogee altitude
417.101 km
Perigee altitude
416.278 km
Semi-major axis
6,794.826 km
Eccentricity
0.00006
Inclination
53.0498°
RAAN
300.9495°
Arg. of periapsis
124.5299°
True anomaly
235.57097°
Mean anomaly
235.5767°
Eccentric anomaly
235.57384°
Mean motion
3.87504 °/min
Orbital period
92.9 mins
BSTAR
0.00071849
Loading maneuver chart data...
Computing Atmospheric mass density...

Documentation

Showing up to 5 results
|